www.pogodaiklimat.ru
ПОГОДА в Батагае
Время
(UTC), дата
00 8.08
03 8.08
06 8.08
09 8.08
12 8.08
15 8.08
18 8.08
21 8.08
00 9.08
03 9.08
06 9.08
09 9.08
12 9.08
15 9.08
18 9.08
21 9.08
00 10.08
03 10.08
06 10.08
09 10.08
12 10.08
15 10.08
18 10.08
21 10.08
00 11.08
03 11.08
06 11.08
09 11.08
12 11.08
15 11.08
18 11.08
21 11.08
00 12.08
03 12.08
06 12.08
09 12.08
12 12.08
15 12.08
18 12.08
21 12.08
00 13.08
03 13.08
06 13.08
09 13.08
12 13.08
21 13.08
00 14.08
03 14.08
06 14.08
09 14.08
12 14.08
15 14.08
Ветер
(напр.,м/с)
Видим. Явления Облачность Т
(С)
Тd
(С)
f
(%)
Тe
(С)
Тes
(С)
Комфортность P
(гПа)
Po
(гПа)
Тmin
(С)
Tmax
(С)
R
(мм)
R24
(мм)
S
(см)
СЗ 2 50 км {ливн. дождь} 10/4 300 м
[Cb cap Ci fib]
+14.9 +12.9 88 +15 +17 1006.4 981.4
СЗ 2 50 км 8/4 1000 м
[Cb cap Ci fib]
+18.3 +10.5 60 +19 +23 1005.7 981.0
СВ 2 50 км 10/4 1000 м
[Cb cap Ci fib]
+18.2 +9.0 55 +19 +22 1005.0 980.3
штиль 0 50 км 10/4 1000 м
[Cb cap Ci fib]
+18.9 +8.8 52 +19 +20 1004.4 979.7 +21.0
ЮВ 1 н/о н/о +16.4 +6.8 53 +17 +17 1004.4 979.4
ЮВ 2 н/о н/о +13.6 +6.6 63 +13 +13 1004.2 979.0
В 1 н/о н/о +7.4 +5.4 87 +6 +6 1003.7 978.0
ЮВ 2 50 км 10/3 1500 м
[Sc Ac trans]
+12.1 +6.9 70 +11 +12 1002.2 977.0 +6.9
ЮВ 2 50 км 10/3 1500 м
[Sc Cs]
+16.8 +8.6 58 +17 +20 1000.5 975.7
ЮВ 3 20 км дым 10/0
[Ac trans Cs]
+19.9 +8.4 47 +21 +25 комфорт 998.3 973.8
ЮЗ 3 2000 м мгла 10/0
[Ac trans Cs]
+22.8 +8.3 39 +24 +27 комфорт 996.0 971.8
З 1 2000 м мгла 10/1 1500 м
[Cb cap Ac trans Cs]
+22.2 +9.8 45 +24 +25 комфорт 995.3 971.1 +23.2
С 7-11
{14}
н/о н/о +14.5 +9.4 71 +12 +12 997.0 972.1
С 4 н/о н/о +9.5 +7.7 89 +7 +7 999.5 974.1
СЗ 3 н/о н/о +7.1 +6.0 93 +4 +4 1001.3 975.6
СЗ 4 20 км слаб. ливневой дождь 10/8 330 м
[Cb cap Ci fib]
+5.8 +5.3 97 +2 +2 1003.4 977.5 +5.5 5
З 4
{10}
50 км {ливн. дождь} 10/9 480 м
[Cb cap Ci fib]
+6.3 +4.2 86 +3 +3 1005.4 979.5 +5.1
З 3 50 км слаб. ливневой дождь 10/8 500 м
[Cb cap Ac trans]
+7.7 +5.2 84 +5 +5 1006.8 981.1
З 4 50 км {ливн. дождь} 10/8 540 м
[Cb cap Ac trans]
+8.7 +7.0 89 +6 +6 1007.1 981.5
С 4 50 км {ливн. дождь} 10/6 840 м
[Cb cap Ac trans Ci fib]
+9.7 +5.3 74 +7 +7 1007.5 982.0 +9.9 0.1
СЗ 2 50 км {ливн. дождь} 10/6 1080 м
[Cb cap Ac trans]
+8.7 +5.4 80 +7 +7 1008.6 982.8
СЗ 2 н/о н/о +7.3 +4.0 80 +5 +5 1008.5 982.6
С 3 н/о н/о +6.8 +2.4 74 +4 +4 1008.3 982.4
С 2 50 км 10/8 800 м
[Sc Ac trans]
+6.3 +2.7 78 +4 +4 1008.6 982.6 +5.9
СЗ 2 50 км 10/8 750 м
[Sc Ac trans]
+7.8 +3.1 72 +6 +6 1008.5 982.6
З 2 50 км 10/8 800 м
[Sc Ac trans]
+9.4 +3.9 68 +8 +9 1007.8 982.2
СЗ 2 50 км 10/6 960 м
[Sc Ac trans]
+12.0 +4.3 59 +11 +12 1006.7 981.3
З 2 50 км 10/6 1300 м
[Sc Ac trans]
+12.6 +4.8 59 +12 +12 1006.4 981.1 +12.8
ЮЗ 2 50 км 10/8 1410 м
[Sc Ac trans]
+10.8 +5.6 70 +10 +10 1006.4 981.0
ЮЗ 2 н/о н/о +9.4 +4.0 69 +8 +8 1006.0 980.4
Ю 1 н/о н/о +8.2 +3.6 73 +8 +8 1005.7 980.0
штиль 0 50 км в посл. час ливневой дождь 10/5 1500 м
[Cb cap Ac trans Ci fib]
+7.6 +4.9 83 +7 +7 1005.4 979.7 +7.2 0.0
З 2 50 км слаб. ливневой дождь 10/5 1000 м
[Cb cap Ac trans]
+10.5 +5.3 70 +9 +10 1004.7 979.3
штиль 0 50 км {ливн. дождь} 10/4 1000 м
[Cb cap Ac trans]
+12.5 +5.9 64 +12 +15 1003.8 978.5
ЮВ 2 50 км {ливн. дождь} 10/4 1500 м
[Cb cap Ac trans Ci fib]
+15.6 +5.9 52 +16 +17 1002.2 977.3
В 3 50 км {ливн. дождь} 10/4 1500 м
[Cb cap Ac trans Ci fib]
+13.3 +6.7 64 +12 +13 1002.2 977.1 +15.6 0.3
штиль 0 50 км {ливн. дождь} 10/4 1500 м
[Cb cap Ac trans]
+11.6 +6.5 71 +11 +11 1001.3 976.1
Ю 1 н/о н/о +8.7 +6.2 84 +8 +8 1000.7 975.2
СЗ 1 н/о н/о +7.5 +6.5 93 +6 +6 999.4 973.8
В 2 50 км слаб. ливневой дождь 10/8 1410 м
[Cb cap Ac trans]
+7.8 +6.5 91 +6 +6 998.5 972.9 +6.8 2
СВ 4 50 км {ливн. дождь} 10/6 1300 м
[Cb cap Ac trans Ci fib]
+10.3 +7.4 82 +8 +8 997.3 972.0
С 5
{10}
50 км 10/8 1200 м
[Cb cap Ac trans]
+9.8 +6.7 81 +7 +7 997.0 971.7
С 8-13
{13}
50 км в посл. час ливневой дождь 10/8 1260 м
[Cb cap Ac trans]
+12.6 +4.3 57 +10 +10 996.4 971.4
С 10-15
{17}
50 км 10/4 1000 м
[Cb cap Ac trans Ci fib]
+11.6 +2.4 53 +8 +8 999.3 974.0 +13.0 0.0
С 9-15
{16}
50 км 10/4 1000 м
[Cb cap Ac trans Ci fib]
+9.4 +1.4 57 +5 +5 1002.6 977.1
СЗ 7 50 км 10/8 600 м
[Cb cap Ci fib]
+5.6 +2.4 80 0 0 1010.3 984.2 +5.1
С 8-14
{14}
50 км 10/8 750 м
[Cb cap Ci fib]
+6.5 +1.8 72 +1 +2 1012.3 986.3
СЗ 5
{14}
50 км 10/8 960 м
[Cb cap Ci fib]
+7.8 +1.1 63 +4 +5 1013.8 987.8
С 6-10
{10}
50 км 10/8 1050 м
[Cb cap Ci fib]
+8.4 +1.3 61 +5 +5 1014.5 988.5
З 3
{10}
50 км 10/6 1000 м
[Cb cap Ci fib]
+8.8 +2.4 64 +7 +7 1015.1 989.2 +10.0
З 2 50 км {ливн. дождь} 10/3 1000 м
[Sc Ci fib]
+6.3 +1.9 73 +4 +4 1015.5 989.3
ЮЗ 1 н/о н/о +4.7 +1.0 77 +4 +4 1014.9 988.7
Местоположение метеостанции Батагай (Якутия, Россия): широта 67.65 долгота 134.60 высота над уровнем моря 214 м.
В архиве по умолчанию представлена погода в Батагае за последнюю неделю. Архивные данные за месяц целиком и за предыдущие месяцы, начиная с января 2011 года, Вы можете получить, выбрав интересующий диапазон дат из раскрывающегося списка и нажав кнопку "Найти!".
*Определитесь, кто Вы:
Внимание! Время в таблицах - всемирное. Для получения местного времени необходимо прибавить поправку, которая равна 10 ч.
Смотрите также архив погоды в соседних городах и на ближайших метеорологических станциях:
Партнеры нашего сайта:      
Пояснения к столбцам:
  • Ветер - указаны скорость ветра в м/с - средняя за 10 мин, порывы в срок и между сроками (в фигурных скобках) и направление, откуда дует ветер: С - северный,
  • СВ - северо-восточный, В - восточный, ЮВ - юго-восточный, Ю - южный, ЮЗ - юго-западный, З - западный, СЗ - северо-западный.
  • Видимость - горизонтальная дальность видимости в метрах или километрах. При видимости от 1 до 10 км при отсутствии осадков обычно наблюдается дымка, при ухудшении видимости до 1 км и менее - туман. В сухую погоду видимость может ухудшаться дымом, пылью или мглою.
  • Явления - указаны атмосферные явления, наблюдавшиеся в срок или в последний час перед сроком; фигурными скобками обозначены явления, наблюдавшиеся между сроками (за 1-3 часа до срока); квадратными скобками обозначены град или гололедные отложения с указанием их диаметра в мм.
  • Облачность - указаны через наклонную черту общая и нижняя облачность в баллах и высота нижней границы облаков в метрах; квадратными скобками обозначены формы облаков: Ci - перистые, Cs - перисто-слоистые, Cc - перисто-кучевые, Ac - высококучевые, As - высокослоистые, Sc - слоисто-кучевые, Ns - слоисто-дождевые, Cu - кучевые, Cb - кучево-дождевые. Подробнее классификацию облаков см. в Атласе облаков (PDF).
  • T - Температура воздуха - температура, измеренная на высоте 2 м над землей.
  • Td - Температура точки росы - температура, при понижении до которой содержащийся в воздухе водяной пар достигнет насыщения.
  • f - Относительная влажность воздуха - влажноcть воздуха, измеренная на высоте 2 м над землей.
  • Te - Эффективная температура - температура, которую ощущает одетый по сезону человек в тени. Характеристика душности погоды. При расчете учитывается влияние влажности воздуха и скорости ветра на теплоощущения человека.
  • Tes - Эффективная температура на солнце - температура, которую ощущает человек, с поправкой на солнечный нагрев. Характеристика знойности погоды. Зависит от высоты солнца над горизонтом, облачности и скорости ветра. Ночью, в пасмурную погоду, а также при ветре 12 м/с и более поправка равна нулю.
  • P - Атмосферное давление - приведенное к уровню моря атмосферное давление.
  • Po - Атмосферное давление - измеренное на уровне метеостанции атмосферное давление.
  • Tmin - Минимальная температура - минимум температуры воздуха на высоте 2 м над землей.
  • Tmax - Максимальная температура - максимум температуры воздуха на высоте 2 м над землей.
  • R - Количество осадков - Количество выпавших осадков за период времени, мм. При наведении курсора мыши на число - период времени, за который выпало указанное количество осадков.
  • R24 - Количество осадков - Количество выпавших осадков за 24 часа, мм.
  • S - Снежный покров - Высота снежного покрова, см. При наведении курсора мыши на число - состояние снежного покрова и степень покрытия местности в баллах.